Date String (YYYY-MM-DD hh:mm:ss) UTC,Instrument flags,Ambient pressure (hPa),Sample flow (lpm),Bypass flow (lpm),Sample temperature (°C),Ambient temperature (°C),ASC tube jacket temperature (°C),LED temperature (°C),Box temperature (°C),Sample RH (%),Span deviation,Mass concentration (μg/m³),Mass concentration (μg/m³),Mass concentration (μg/m³)
DateTimeUTC,F1_M11,P_M11,Q1_M11,Q2_M11,T1_M11,T2_M11,T3_M11,T4_M11,T5_M11,U1_M11,ZSPAN_M11,X0_M11,X2_M11,X1_M11
2023-02-06 15:00:00,,0816.8,5.08,0.00,22.1,20.8,00.0,31.1,23.8,08.0,0000.0,0000.87,0000.34,0000.21
2023-02-06 15:01:00,,0816.9,5.00,0.00,22.2,22.1,00.0,31.0,24.1,08.0,0000.0,0000.85,0000.32,0000.21
2023-02-06 15:02:00,,0817.0,4.98,0.00,22.3,23.0,00.0,31.1,24.4,08.1,0000.0,0000.91,0000.35,0000.22
2023-02-06 15:03:00,,0817.0,5.06,0.00,22.4,22.7,00.0,31.1,24.4,08.3,0000.0,0002.02,0000.37,0000.22
2023-02-06 15:04:00,,0816.9,4.95,0.00,22.4,22.1,00.0,31.2,24.3,08.2,0000.0,0002.30,0000.38,0000.22
2023-02-06 15:05:00,,0816.9,5.06,0.00,22.4,21.7,00.0,31.2,24.1,08.0,0000.0,0002.22,0000.37,0000.22
2023-02-06 15:06:00,,0817.0,5.02,0.00,22.4,21.3,00.0,31.2,24.1,07.8,0000.0,0002.18,0000.39,0000.22
2023-02-06 15:07:00,,0816.9,4.99,0.00,22.3,21.0,00.0,31.2,24.0,07.8,0000.0,0001.99,0000.39,0000.22
2023-02-06 15:08:00,,0816.9,4.97,0.00,22.3,20.7,00.0,31.2,23.9,07.9,0000.0,0001.98,0000.38,0000.21
2023-02-06 15:09:00,,0817.0,5.01,0.00,22.2,20.5,00.0,31.2,23.8,08.0,0000.0,0001.97,0000.36,0000.21
2023-02-06 15:10:00,,0817.0,4.99,0.00,22.1,20.3,00.0,31.2,23.7,08.1,0000.0,0001.94,0000.35,0000.21
2023-02-06 15:11:00,,0817.0,5.00,0.00,22.1,20.1,00.0,31.2,23.6,08.2,0000.0,0001.97,0000.36,0000.21
2023-02-06 15:12:00,,0817.0,5.01,0.00,22.0,20.0,00.0,31.1,23.5,08.0,0000.0,0001.98,0000.35,0000.21
2023-02-06 15:13:00,,0817.1,4.98,0.00,22.0,19.9,00.0,31.1,23.4,08.1,0000.0,0001.94,0000.33,0000.20
2023-02-06 15:14:00,,0817.0,4.97,0.00,21.9,19.9,00.0,31.1,23.4,07.8,0000.0,0000.68,0000.34,0000.20
2023-02-06 15:15:00,,0817.0,4.99,0.00,21.9,20.5,00.0,31.0,23.5,07.9,0000.0,0000.63,0000.35,0000.20
2023-02-06 15:16:00,,0817.1,5.03,0.00,22.0,21.9,00.0,31.0,23.9,07.9,0000.0,0000.65,0000.36,0000.20
2023-02-06 15:17:00,,0817.1,4.96,0.00,22.2,22.9,00.0,31.0,24.1,07.8,0000.0,0000.59,0000.33,0000.20
2023-02-06 15:18:00,,0817.0,4.97,0.00,22.2,22.3,00.0,31.0,24.1,07.7,0000.0,0000.60,0000.34,0000.20
2023-02-06 15:19:00,,0817.0,5.06,0.00,22.1,21.5,00.0,31.0,23.8,07.6,0000.0,0000.64,0000.36,0000.20
2023-02-06 15:20:00,,0817.0,5.00,0.00,22.1,20.9,00.0,31.0,23.7,07.6,0000.0,0000.63,0000.36,0000.21
2023-02-06 15:21:00,,0817.0,5.00,0.00,22.0,20.4,00.0,31.0,23.5,07.6,0000.0,0000.65,0000.37,0000.21
2023-02-06 15:22:00,,0817.1,4.97,0.00,21.9,20.1,00.0,31.0,23.4,07.7,0000.0,0000.65,0000.37,0000.21
2023-02-06 15:23:00,,0817.1,5.02,0.00,21.9,19.8,00.0,31.0,23.3,07.7,0000.0,0000.65,0000.37,0000.21
2023-02-06 15:24:00,,0817.1,5.02,0.00,21.8,19.8,00.0,31.0,23.3,07.9,0000.0,0000.67,0000.38,0000.22
2023-02-06 15:25:00,,0817.1,4.97,0.00,21.7,19.7,00.0,30.9,23.2,07.9,0000.0,0000.65,0000.37,0000.22
2023-02-06 15:26:00,,0817.1,4.97,0.00,21.7,19.5,00.0,30.9,23.2,07.8,0000.0,0000.60,0000.34,0000.22
2023-02-06 15:27:00,,0817.1,5.10,0.00,21.6,19.5,00.0,30.8,23.1,07.9,0000.0,0000.62,0000.34,0000.23
2023-02-06 15:28:00,,0817.2,5.01,0.00,21.6,19.8,00.0,30.8,23.1,07.8,0000.0,0000.68,0000.36,0000.24
2023-02-06 15:29:00,,0817.2,4.98,0.00,21.7,21.3,00.0,30.7,23.4,07.7,0000.0,0000.70,0000.37,0000.24
2023-02-06 15:30:00,,0817.3,4.97,0.00,21.8,22.4,00.0,30.7,23.8,07.6,0000.0,0000.68,0000.36,0000.24
2023-02-06 15:31:00,,0817.3,5.02,0.00,21.9,22.5,00.0,30.8,23.9,07.8,0000.0,0000.67,0000.35,0000.25
2023-02-06 15:32:00,,0817.2,4.98,0.00,21.9,21.8,00.0,30.8,23.7,07.6,0000.0,0000.89,0000.37,0000.26
2023-02-06 15:33:00,,0817.3,4.96,0.00,21.9,21.0,00.0,30.8,23.5,07.7,0000.0,0001.63,0000.36,0000.26
2023-02-06 15:34:00,,0817.4,4.99,0.00,21.8,20.5,00.0,30.8,23.4,07.6,0000.0,0001.88,0000.36,0000.25
2023-02-06 15:35:00,,0817.4,5.06,0.00,21.8,20.1,00.0,30.8,23.3,07.7,0000.0,0001.93,0000.35,0000.25
2023-02-06 15:36:00,,0817.3,4.97,0.00,21.7,19.8,00.0,30.8,23.2,07.8,0000.0,0001.90,0000.34,0000.25
2023-02-06 15:37:00,,0817.4,5.01,0.00,21.6,19.5,00.0,30.7,23.1,07.8,0000.0,0001.95,0000.36,0000.25
2023-02-06 15:38:00,,0817.4,4.98,0.00,21.6,19.4,00.0,30.7,23.0,08.0,0000.0,0002.01,0000.39,0000.25
2023-02-06 15:39:00,,0817.5,4.97,0.00,21.5,19.2,00.0,30.7,23.0,07.9,0000.0,0001.96,0000.38,0000.25
2023-02-06 15:40:00,,0817.5,5.02,0.00,21.4,19.1,00.0,30.6,22.9,07.8,0000.0,0002.73,0000.38,0000.24
2023-02-06 15:41:00,,0817.6,5.00,0.00,21.4,19.6,00.0,30.6,23.0,07.8,0000.0,0002.85,0000.38,0000.25
2023-02-06 15:42:00,,0817.6,5.00,0.00,21.5,21.2,00.0,30.5,23.3,07.8,0000.0,0002.85,0000.39,0000.25
2023-02-06 15:43:00,,0817.6,5.01,0.00,21.7,21.9,00.0,30.6,23.6,07.9,0000.0,0002.70,0000.37,0000.24
2023-02-06 15:44:00,,0817.7,4.97,0.00,21.7,21.3,00.0,30.6,23.5,07.8,0000.0,0001.82,0000.36,0000.25
2023-02-06 15:45:00,,0817.7,4.97,0.00,21.7,20.8,00.0,30.6,23.3,07.5,0000.0,0001.62,0000.37,0000.26
2023-02-06 15:46:00,,0817.7,5.03,0.00,21.6,20.4,00.0,30.6,23.2,07.6,0000.0,0001.50,0000.37,0000.26
2023-02-06 15:47:00,,0817.8,5.02,0.00,21.6,20.0,00.0,30.6,23.1,07.8,0000.0,0001.51,0000.37,0000.27
2023-02-06 15:48:00,,0817.8,4.95,0.00,21.5,19.9,00.0,30.6,23.1,07.8,0000.0,0001.45,0000.35,0000.27
2023-02-06 15:49:00,,0817.8,5.01,0.00,21.5,19.8,00.0,30.6,23.1,07.7,0000.0,0001.34,0000.31,0000.27
2023-02-06 15:50:00,,0817.8,5.02,0.00,21.5,19.7,00.0,30.6,23.1,07.6,0000.0,0001.37,0000.32,0000.27
2023-02-06 15:51:00,,0817.8,4.98,0.00,21.5,19.6,00.0,30.5,23.0,07.7,0000.0,0000.73,0000.33,0000.28
2023-02-06 15:52:00,,0817.8,4.98,0.00,21.4,19.5,00.0,30.5,23.0,07.7,0000.0,0000.50,0000.33,0000.28
2023-02-06 15:53:00,,0817.8,4.98,0.00,21.4,19.5,00.0,30.5,23.0,07.8,0000.0,0000.48,0000.32,0000.28
2023-02-06 15:54:00,,0817.8,5.04,0.00,21.4,19.4,00.0,30.5,22.9,07.9,0000.0,0000.48,0000.33,0000.28
2023-02-06 15:55:00,,0817.8,5.03,0.00,21.4,20.3,00.0,30.4,23.1,07.8,0000.0,0000.54,0000.35,0000.29
2023-02-06 15:56:00,,0817.7,4.98,0.00,21.5,22.0,00.0,30.4,23.4,07.8,0000.0,0000.62,0000.36,0000.29
2023-02-06 15:57:00,,0817.7,4.98,0.00,21.7,22.5,00.0,30.4,23.7,07.9,0000.0,0000.66,0000.38,0000.29
2023-02-06 15:58:00,,0817.7,5.00,0.00,21.7,22.0,00.0,30.5,23.6,07.9,0000.0,0000.69,0000.40,0000.29
2023-02-06 15:59:00,,0817.7,5.01,0.00,21.7,21.5,00.0,30.5,23.5,07.7,0000.0,0000.74,0000.41,0000.29
